| time (UTC) | temp F | wind direction | speed knots | gust knots | rain 1hr in | rain 24hr in | rain mn in | humidity % | barometer mb |
| 20260502164157 | 66 | 350 | 8.7 | 12.2 | 0.00 | 0.00 | 0.68 | 71 | 1016.3 |
| 20260502163646 | 66 | 22 | 9.6 | 14.8 | 0.00 | 0.00 | 0.68 | 70 | 1016.3 |
| 20260502163147 | 66 | 358 | 4.3 | 11.3 | 0.00 | 0.00 | 0.68 | 70 | 1016.3 |
| 20260502162646 | 66 | 326 | 4.3 | 10.4 | 0.00 | 0.00 | 0.68 | 70 | 1016.3 |
| 20260502162146 | 66 | 13 | 5.2 | 11.3 | 0.00 | 0.00 | 0.68 | 71 | 1016.3 |
| 20260502161647 | 66 | 357 | 7.8 | 13.9 | 0.00 | 0.00 | 0.68 | 72 | 1016.3 |
| 20260502161147 | 65 | 34 | 7.8 | 12.2 | 0.00 | 0.00 | 0.68 | 73 | 1016.6 |
| 20260502160647 | 65 | 357 | 8.7 | 12.2 | 0.00 | 0.00 | 0.68 | 74 | 1015.9 |
| 20260502160146 | 64 | 20 | 9.6 | 13.0 | 0.00 | 0.00 | 0.68 | 75 | 1016.3 |
| 20260502152146 | 63 | 354 | 1.7 | 7.0 | 0.00 | 0.00 | 0.68 | 78 | 1016.3 |
| 20260502151646 | 63 | 36 | 4.3 | 7.8 | 0.00 | 0.00 | 0.68 | 78 | 1016.3 |
| 20260502151146 | 63 | 325 | 6.1 | 12.2 | 0.00 | 0.00 | 0.68 | 78 | 1016.3 |
| 20260502150647 | 63 | 331 | 5.2 | 9.6 | 0.00 | 0.00 | 0.68 | 78 | 1016.3 |
| 20260502150148 | 62 | 9 | 5.2 | 11.3 | 0.00 | 0.00 | 0.68 | 78 | 1016.3 |
| 20260502130158 | 59 | 359 | 5.2 | 14.8 | 0.00 | 0.00 | 0.68 | 82 | 1014.9 |
| 20260502123647 | 58 | 23 | 6.1 | 13.9 | 0.00 | 0.00 | 0.68 | 86 | 1014.2 |
| 20260502123148 | 58 | 25 | 5.2 | 8.7 | 0.00 | 0.00 | 0.68 | 87 | 1014.2 |
| 20260502122646 | 58 | 24 | 5.2 | 10.4 | 0.00 | 0.00 | 0.68 | 87 | 1014.2 |
| 20260502122146 | 58 | 35 | 7.8 | 18.2 | 0.00 | 0.00 | 0.68 | 87 | 1014.2 |
| 20260502121646 | 58 | 24 | 7.0 | 15.6 | 0.00 | 0.00 | 0.68 | 87 | 1014.2 |
| 20260502121147 | 58 | 39 | 10.4 | 15.6 | 0.00 | 0.00 | 0.68 | 89 | 1014.2 |
| 20260502120646 | 58 | 5 | 8.7 | 12.2 | 0.00 | 0.00 | 0.68 | 90 | 1014.2 |
| 20260502120146 | 57 | 12 | 7.8 | 14.8 | 0.00 | 0.00 | 0.68 | 90 | 1014.2 |
| 20260502115647 | 57 | 25 | 10.4 | 17.4 | 0.00 | 0.00 | 0.68 | 90 | 1013.9 |
| 20260502115146 | 58 | 346 | 3.5 | 16.5 | 0.00 | 0.00 | 0.68 | 91 | 1013.5 |
| 20260502114647 | 58 | 37 | 7.8 | 13.0 | 0.00 | 0.00 | 0.68 | 90 | 1013.5 |
| 20260502114146 | 58 | 24 | 10.4 | 18.2 | 0.00 | 0.00 | 0.68 | 90 | 1013.5 |
| 20260502113647 | 58 | 34 | 9.6 | 16.5 | 0.00 | 0.00 | 0.68 | 90 | 1013.5 |
| 20260502113146 | 58 | 10 | 4.3 | 13.9 | 0.00 | 0.00 | 0.68 | 91 | 1013.5 |
| 20260502112647 | 57 | 24 | 4.3 | 13.0 | 0.00 | 0.00 | 0.68 | 92 | 1013.2 |
| 20260502112147 | 57 | 24 | 5.2 | 17.4 | 0.00 | 0.00 | 0.68 | 93 | 1013.2 |
| 20260502111647 | 57 | 46 | 5.2 | 12.2 | 0.00 | 0.00 | 0.68 | 94 | 1013.2 |
| 20260502111147 | 57 | 351 | 5.2 | 9.6 | 0.00 | 0.00 | 0.68 | 95 | 1013.2 |
| 20260502110646 | 57 | 43 | 7.0 | 11.3 | 0.02 | 0.00 | 0.68 | 95 | 1012.9 |
| 20260502110146 | 57 | 23 | 9.6 | 13.9 | 0.02 | 0.00 | 0.68 | 95 | 1013.2 |
| 20260502105647 | 57 | 35 | 9.6 | 15.6 | 0.00 | 0.00 | 0.67 | 96 | 1012.9 |
| 20260502105148 | 57 | 9 | 7.0 | 14.8 | 0.00 | 0.00 | 0.67 | 96 | 1012.9 |
| 20260502104646 | 57 | 38 | 5.2 | 10.4 | 0.00 | 0.00 | 0.67 | 95 | 1012.9 |
| 20260502104147 | 57 | 35 | 11.3 | 16.5 | 0.00 | 0.00 | 0.67 | 95 | 1012.9 |
| 20260502103646 | 57 | 33 | 8.7 | 14.8 | 0.00 | 0.00 | 0.67 | 95 | 1012.9 |
| 20260502103152 | 57 | 20 | 11.3 | 13.0 | 0.02 | 0.00 | 0.67 | 95 | 1012.9 |
| 20260502102650 | 57 | 15 | 5.2 | 13.9 | 0.02 | 0.00 | 0.67 | 96 | 1012.5 |
| 20260502102146 | 57 | 48 | 2.6 | 14.8 | 0.00 | 0.00 | 0.67 | 95 | 1012.5 |
| 20260502101651 | 57 | 2 | 4.3 | 15.6 | 0.00 | 0.00 | 0.67 | 94 | 1012.5 |
| 20260502101146 | 58 | 18 | 3.5 | 8.7 | 0.00 | 0.00 | 0.67 | 93 | 1012.5 |
| 20260502100647 | 58 | 30 | 9.6 | 14.8 | 0.00 | 0.00 | 0.67 | 92 | 1012.5 |
| 20260502100147 | 58 | 358 | 5.2 | 11.3 | 0.00 | 0.00 | 0.67 | 93 | 1012.5 |
| 20260502091146 | 57 | 0 | 7.8 | 11.3 | 0.00 | 0.00 | 0.67 | 95 | 1012.2 |
| 20260502090648 | 57 | 74 | 2.6 | 11.3 | 0.00 | 0.00 | 0.67 | 95 | 1012.5 |
| 20260502090149 | 57 | 76 | 2.6 | 6.1 | 0.00 | 0.00 | 0.67 | 96 | 1012.5 |
| 20260502071146 | 58 | 4 | 3.5 | 13.0 | 0.73 | 0.00 | 0.61 | 98 | 1011.2 |
| 20260502070646 | 58 | 315 | 7.0 | 7.8 | 0.17 | 0.00 | 0.50 | 98 | 1012.9 |
| 20260502070149 | 58 | 355 | 2.6 | 9.6 | 0.24 | 0.00 | 0.48 | 98 | 1012.2 |
| 20260502065647 | 58 | 45 | 6.1 | 9.6 | 0.19 | 0.00 | 0.47 | 98 | 1011.5 |
| 20260502065146 | 58 | 17 | 8.7 | 13.9 | 0.19 | 0.00 | 0.45 | 98 | 1011.5 |
| 20260502064647 | 58 | 23 | 8.7 | 10.4 | 0.17 | 0.00 | 0.43 | 98 | 1011.9 |
| 20260502064146 | 59 | 0 | 6.1 | 8.7 | 0.12 | 0.00 | 0.41 | 98 | 1012.2 |
| 20260502063647 | 58 | 1 | 7.0 | 12.2 | 0.14 | 0.00 | 0.41 | 98 | 1011.9 |
| 20260502063146 | 59 | 352 | 7.0 | 9.6 | 0.05 | 0.00 | 0.39 | 98 | 1011.9 |
| 20260502062647 | 58 | 324 | 6.1 | 7.8 | 0.00 | 0.00 | 0.38 | 99 | 1012.2 |
| 20260502062146 | 58 | 354 | 3.5 | 12.2 | 0.00 | 0.00 | 0.38 | 99 | 1011.9 |
| 20260502061646 | 59 | 1 | 5.2 | 9.6 | 0.00 | 0.00 | 0.38 | 99 | 1011.9 |
| 20260502061147 | 59 | 347 | 4.3 | 10.4 | 0.02 | 0.00 | 0.38 | 99 | 1011.9 |
| 20260502060646 | 59 | 22 | 7.0 | 12.2 | 0.02 | 0.00 | 0.38 | 99 | 1011.9 |
| 20260502060146 | 59 | 356 | 2.6 | 14.8 | 0.02 | 0.00 | 0.38 | 99 | 1011.9 |
| 20260502055646 | 59 | 1 | 10.4 | 11.3 | 0.07 | 0.00 | 0.38 | 99 | 1011.9 |
| 20260502055146 | 59 | 7 | 4.3 | 12.2 | 0.21 | 0.00 | 0.37 | 99 | 1012.2 |
| 20260502054646 | 59 | 353 | 2.6 | 7.8 | 0.85 | 0.00 | 0.37 | 99 | 1012.2 |
| 20260502054146 | 59 | 339 | 3.5 | 7.8 | 1.79 | 0.00 | 0.34 | 99 | 1012.5 |
| 20260502053648 | 59 | 5 | 6.1 | 10.4 | 0.78 | 0.00 | 0.17 | 99 | 1011.9 |
| 20260502053146 | 59 | 0 | 2.6 | 7.0 | 0.05 | 0.00 | 0.04 | 99 | 1012.5 |
| 20260502052647 | 60 | 18 | 2.6 | 9.6 | 0.09 | 0.00 | 0.04 | 99 | 1011.5 |
| 20260502052147 | 60 | 2 | 9.6 | 12.2 | 0.17 | 0.00 | 0.03 | 98 | 1011.2 |
| 20260502051646 | 60 | 31 | 2.6 | 7.0 | 0.09 | 0.00 | 0.02 | 98 | 1011.9 |
| 20260502051146 | 60 | 317 | 4.3 | 6.1 | 0.02 | 0.00 | 0.00 | 98 | 1012.2 |
| 20260502050648 | 60 | 48 | 3.5 | 7.8 | 0.02 | 0.00 | 0.00 | 98 | 1012.2 |
| 20260502050147 | 60 | 353 | 0.9 | 6.1 | 0.05 | 0.00 | 0.00 | 98 | 1012.9 |
| 20260502045646 | 60 | 0 | 4.3 | 8.7 | 0.07 | 0.00 | 1.63 | 98 | 1011.5 |
| 20260502045147 | 60 | 26 | 6.1 | 10.4 | 0.02 | 0.00 | 1.62 | 98 | 1011.9 |
| 20260502044647 | 60 | 34 | 2.6 | 9.6 | 0.00 | 0.00 | 1.61 | 98 | 1011.9 |
| 20260502044147 | 60 | 8 | 6.1 | 8.7 | 0.02 | 0.00 | 1.61 | 98 | 1011.9 |
| 20260502043647 | 60 | 45 | 4.3 | 14.8 | 0.02 | 0.00 | 1.61 | 99 | 1011.5 |
| 20260502043147 | 60 | 12 | 5.2 | 7.8 | 0.02 | 0.00 | 1.61 | 99 | 1011.5 |
| 20260502042646 | 60 | 63 | 5.2 | 10.4 | 0.05 | 0.00 | 1.61 | 99 | 1011.2 |
| 20260502042147 | 60 | 44 | 7.8 | 10.4 | 0.02 | 0.00 | 1.61 | 99 | 1010.8 |
| 20260502041647 | 60 | 5 | 4.3 | 8.7 | 0.00 | 0.00 | 1.60 | 99 | 1011.2 |
| 20260502041146 | 60 | 23 | 6.1 | 8.7 | 0.02 | 0.00 | 1.60 | 99 | 1011.2 |
| 20260502040646 | 60 | 336 | 6.1 | 9.6 | 0.02 | 0.00 | 1.60 | 99 | 1011.2 |
| 20260502040147 | 60 | 36 | 7.0 | 11.3 | 0.02 | 0.00 | 1.60 | 99 | 1011.2 |
| 20260502035646 | 59 | 31 | 4.3 | 9.6 | 0.02 | 0.00 | 1.60 | 99 | 1010.8 |
| 20260502034704 | 59 | 47 | 7.0 | 10.4 | 0.07 | 0.00 | 1.59 | 99 | 1011.9 |
| 20260502034147 | 59 | 51 | 3.5 | 7.8 | 0.09 | 0.00 | 1.59 | 99 | 1011.9 |
| 20260502033648 | 59 | 11 | 3.5 | 7.0 | 0.07 | 0.00 | 1.58 | 98 | 1011.9 |
| 20260502033146 | 59 | 32 | 7.0 | 7.0 | 0.05 | 0.00 | 1.57 | 98 | 1011.9 |
| 20260502032647 | 59 | 25 | 3.5 | 8.7 | 0.07 | 0.00 | 1.57 | 98 | 1012.2 |
| 20260502032146 | 59 | 66 | 5.2 | 8.7 | 0.07 | 0.00 | 1.57 | 98 | 1011.9 |
| 20260502031646 | 59 | 21 | 4.3 | 9.6 | 0.02 | 0.00 | 1.56 | 98 | 1011.9 |
| 20260502031147 | 59 | 21 | 3.5 | 7.0 | 0.00 | 0.00 | 1.55 | 98 | 1011.5 |
| 20260502030646 | 59 | 40 | 4.3 | 8.7 | 0.00 | 0.00 | 1.55 | 98 | 1011.5 |
| 20260502030147 | 59 | 31 | 2.6 | 8.7 | 0.00 | 0.00 | 1.55 | 98 | 1011.5 |
| 20260502025646 | 59 | 24 | 2.6 | 7.8 | 0.00 | 0.00 | 1.55 | 98 | 1011.5 |
| 20260502025146 | 59 | 21 | 3.5 | 6.1 | 0.00 | 0.00 | 1.55 | 98 | 1011.9 |
| 20260502024646 | 59 | 35 | 2.6 | 4.3 | 0.00 | 0.00 | 1.55 | 98 | 1011.5 |
| 20260502024147 | 59 | 50 | 4.3 | 7.0 | 0.00 | 0.00 | 1.55 | 98 | 1011.2 |
| 20260502023648 | 59 | 67 | 7.0 | 11.3 | 0.00 | 0.00 | 1.55 | 98 | 1010.8 |
| 20260502023147 | 59 | 65 | 4.3 | 11.3 | 0.00 | 0.00 | 1.55 | 97 | 1011.2 |
| 20260502022647 | 59 | 57 | 5.2 | 9.6 | 0.00 | 0.00 | 1.55 | 97 | 1011.2 |
| 20260502022146 | 59 | 29 | 5.2 | 10.4 | 0.00 | 0.00 | 1.55 | 97 | 1011.2 |
| 20260502021646 | 59 | 21 | 7.0 | 13.9 | 0.00 | 0.00 | 1.55 | 97 | 1010.8 |
| 20260502021147 | 59 | 33 | 4.3 | 13.0 | 0.00 | 0.00 | 1.55 | 97 | 1010.8 |
| 20260502020647 | 59 | 33 | 5.2 | 12.2 | 0.00 | 0.00 | 1.55 | 98 | 1010.8 |
| 20260502020146 | 59 | 341 | 4.3 | 11.3 | 0.00 | 0.00 | 1.55 | 98 | 1010.8 |
| 20260502015646 | 59 | 34 | 6.1 | 13.0 | 0.00 | 0.00 | 1.55 | 98 | 1010.5 |
| 20260502015146 | 59 | 37 | 2.6 | 10.4 | 0.00 | 0.00 | 1.55 | 99 | 1010.8 |
| 20260502014647 | 59 | 34 | 4.3 | 12.2 | 0.00 | 0.00 | 1.55 | 99 | 1010.8 |
| 20260502014146 | 59 | 354 | 3.5 | 10.4 | 0.05 | 0.00 | 1.55 | 99 | 1010.5 |
| 20260502013646 | 60 | 38 | 7.8 | 13.0 | 0.28 | 0.00 | 1.55 | 99 | 1011.2 |
| 20260502013147 | 60 | 37 | 2.6 | 8.7 | 0.24 | 0.00 | 1.54 | 98 | 1011.2 |
| 20260502012646 | 60 | 42 | 6.1 | 10.4 | 0.05 | 0.00 | 1.51 | 98 | 1011.5 |
| 20260502012146 | 60 | 36 | 5.2 | 8.7 | 0.09 | 0.00 | 1.50 | 98 | 1011.2 |
| 20260502011646 | 60 | 51 | 6.1 | 12.2 | 0.21 | 0.00 | 1.50 | 98 | 1011.2 |
| 20260502011146 | 60 | 28 | 5.2 | 11.3 | 0.17 | 0.00 | 1.48 | 98 | 1011.2 |
| 20260502010646 | 60 | 48 | 7.8 | 10.4 | 0.05 | 0.00 | 1.47 | 98 | 1011.2 |
| 20260502010147 | 60 | 0 | 7.8 | 9.6 | 0.00 | 0.00 | 1.46 | 98 | 1011.9 |
| 20260502005647 | 60 | 0 | 7.0 | 13.9 | 0.00 | 0.00 | 1.46 | 98 | 1011.2 |
| 20260502005146 | 60 | 38 | 5.2 | 12.2 | 0.00 | 0.00 | 1.46 | 98 | 1011.2 |
| 20260502004647 | 60 | 19 | 6.1 | 13.0 | 0.00 | 0.00 | 1.46 | 98 | 1011.2 |
| 20260502004146 | 60 | 13 | 11.3 | 14.8 | 0.00 | 0.00 | 1.46 | 98 | 1011.2 |
| 20260502003646 | 60 | 29 | 5.2 | 9.6 | 0.02 | 0.00 | 1.46 | 98 | 1011.2 |
| 20260502003146 | 60 | 27 | 8.7 | 10.4 | 0.02 | 0.00 | 1.46 | 98 | 1010.8 |
| 20260502002646 | 60 | 42 | 4.3 | 11.3 | 0.05 | 0.00 | 1.45 | 99 | 1010.8 |
| 20260502002146 | 60 | 41 | 5.2 | 9.6 | 0.24 | 0.00 | 1.45 | 98 | 1011.2 |
| 20260502001647 | 60 | 35 | 6.1 | 11.3 | 0.28 | 0.00 | 1.44 | 98 | 1010.8 |
| 20260502001146 | 60 | 24 | 7.0 | 12.2 | 0.19 | 0.00 | 1.41 | 98 | 1010.5 |
| 20260502000646 | 59 | 15 | 10.4 | 13.9 | 0.26 | 0.00 | 1.39 | 98 | 1010.5 |
| 20260502000146 | 59 | 14 | 5.2 | 14.8 | 0.31 | 0.00 | 1.37 | 98 | 1010.2 |
| 20260501235648 | 60 | 5 | 6.1 | 14.8 | 0.19 | 0.00 | 1.35 | 98 | 1010.5 |
| 20260501235147 | 60 | 3 | 10.4 | 16.5 | 0.09 | 0.00 | 1.32 | 98 | 1010.2 |
| 20260501234646 | 60 | 30 | 5.2 | 17.4 | 0.12 | 0.00 | 1.31 | 98 | 1010.5 |
| 20260501234147 | 60 | 41 | 7.8 | 13.0 | 0.21 | 0.00 | 1.31 | 98 | 1010.2 |
| 20260501233648 | 60 | 39 | 7.8 | 18.2 | 0.26 | 0.00 | 1.29 | 98 | 1010.2 |
| 20260501233147 | 60 | 16 | 8.7 | 11.3 | 0.26 | 0.00 | 1.27 | 98 | 1010.5 |
| 20260501232646 | 60 | 340 | 4.3 | 16.5 | 0.33 | 0.00 | 1.24 | 97 | 1010.5 |
| 20260501232147 | 60 | 42 | 10.4 | 14.8 | 0.31 | 0.00 | 1.22 | 97 | 1010.5 |
| 20260501231647 | 60 | 39 | 9.6 | 13.0 | 0.19 | 0.00 | 1.19 | 97 | 1010.2 |
| 20260501231147 | 60 | 47 | 10.4 | 14.8 | 0.21 | 0.00 | 1.17 | 96 | 1010.5 |
| 20260501230646 | 60 | 28 | 7.0 | 18.2 | 0.12 | 0.00 | 1.15 | 96 | 1010.2 |
| 20260501230147 | 60 | 332 | 3.5 | 16.5 | 0.00 | 0.00 | 1.13 | 95 | 1010.2 |
| 20260501225647 | 60 | 34 | 4.3 | 13.0 | 0.00 | 0.00 | 1.13 | 95 | 1009.8 |
| 20260501225146 | 61 | 53 | 6.1 | 13.0 | 0.00 | 0.00 | 1.13 | 95 | 1009.8 |
| 20260501224646 | 61 | 22 | 6.1 | 13.0 | 0.02 | 0.00 | 1.13 | 95 | 1010.2 |
| 20260501224146 | 61 | 0 | 8.7 | 14.8 | 0.02 | 0.00 | 1.13 | 95 | 1010.2 |
| 20260501223648 | 61 | 35 | 7.0 | 8.7 | 0.00 | 0.00 | 1.13 | 95 | 1010.2 |
| 20260501223147 | 62 | 5 | 5.2 | 15.6 | 0.00 | 0.00 | 1.13 | 94 | 1010.5 |
| 20260501222646 | 62 | 17 | 5.2 | 13.0 | 0.00 | 0.00 | 1.13 | 94 | 1010.2 |
| 20260501222146 | 62 | 36 | 10.4 | 19.1 | 0.00 | 0.00 | 1.13 | 93 | 1010.5 |
| 20260501221647 | 63 | 34 | 4.3 | 12.2 | 0.00 | 0.00 | 1.13 | 94 | 1010.2 |
| 20260501221146 | 63 | 13 | 12.2 | 16.5 | 0.00 | 0.00 | 1.13 | 95 | 1010.2 |
| 20260501220646 | 63 | 332 | 7.8 | 13.0 | 0.00 | 0.00 | 1.13 | 95 | 1010.2 |
| 20260501220146 | 63 | 7 | 6.1 | 16.5 | 0.00 | 0.00 | 1.13 | 96 | 1010.2 |
| 20260501215646 | 63 | 18 | 3.5 | 9.6 | 0.00 | 0.00 | 1.13 | 96 | 1009.8 |
| 20260501215147 | 64 | 14 | 12.2 | 13.0 | 0.00 | 0.00 | 1.13 | 97 | 1009.8 |
| 20260501214647 | 64 | 5 | 3.5 | 11.3 | 0.00 | 0.00 | 1.13 | 97 | 1009.8 |
| 20260501214146 | 63 | 35 | 5.2 | 14.8 | 0.00 | 0.00 | 1.13 | 97 | 1009.8 |
| 20260501213647 | 63 | 26 | 7.0 | 13.9 | 0.00 | 0.00 | 1.13 | 97 | 1010.5 |
| 20260501213148 | 63 | 22 | 6.1 | 11.3 | 0.02 | 0.00 | 1.13 | 98 | 1010.8 |
| 20260501212646 | 63 | 339 | 8.7 | 12.2 | 0.17 | 0.00 | 1.13 | 98 | 1010.5 |
| 20260501212146 | 63 | 6 | 6.1 | 11.3 | 0.31 | 0.00 | 1.13 | 98 | 1010.8 |
| 20260501211646 | 63 | 347 | 7.8 | 11.3 | 0.12 | 0.00 | 1.09 | 98 | 1010.8 |
| 20260501211146 | 63 | 11 | 5.2 | 8.7 | 0.00 | 0.00 | 1.07 | 98 | 1011.2 |
| 20260501210647 | 63 | 14 | 8.7 | 12.2 | 0.02 | 0.00 | 1.07 | 98 | 1011.2 |
| 20260501210148 | 63 | 29 | 7.8 | 16.5 | 0.05 | 0.00 | 1.07 | 99 | 1010.5 |
| 20260501205647 | 63 | 25 | 8.7 | 14.8 | 0.09 | 0.00 | 1.07 | 99 | 1010.5 |
| 20260501205152 | 63 | 19 | 9.6 | 13.9 | 0.24 | 0.00 | 1.06 | 99 | 1010.2 |
| 20260501204647 | 63 | 343 | 7.8 | 14.8 | 0.26 | 0.00 | 1.05 | 99 | 1010.8 |
| 20260501204146 | 63 | 333 | 11.3 | 12.2 | 0.24 | 0.00 | 1.02 | 99 | 1011.2 |
| 20260501203646 | 63 | 11 | 6.1 | 9.6 | 0.33 | 0.00 | 1.00 | 99 | 1011.2 |
| 20260501203147 | 63 | 358 | 5.2 | 7.0 | 0.31 | 0.00 | 0.98 | 99 | 1010.5 |
| 20260501202647 | 63 | 0 | 5.2 | 9.6 | 0.33 | 0.00 | 0.95 | 99 | 1010.5 |
| 20260501202147 | 63 | 329 | 4.3 | 10.4 | 1.13 | 0.00 | 0.93 | 99 | 1010.5 |
| 20260501201647 | 64 | 0 | 12.2 | 16.5 | 1.02 | 0.00 | 0.88 | 99 | 1010.5 |
| 20260501201146 | 65 | 325 | 4.3 | 7.8 | 0.31 | 0.00 | 0.73 | 99 | 1011.2 |
| 20260501200646 | 65 | 304 | 7.8 | 12.2 | 0.69 | 0.00 | 0.70 | 99 | 1010.8 |
| 20260501200149 | 65 | 309 | 4.3 | 8.7 | 1.96 | 0.00 | 0.68 | 99 | 1010.2 |
| 20260501195647 | 66 | 42 | 6.1 | 11.3 | 2.46 | 0.00 | 0.59 | 99 | 1010.2 |
| 20260501195146 | 66 | 339 | 2.6 | 7.0 | 1.23 | 0.00 | 0.32 | 98 | 1010.5 |
| 20260501194647 | 66 | 298 | 5.2 | 7.0 | 0.40 | 0.00 | 0.16 | 97 | 1010.5 |
| 20260501194147 | 66 | 14 | 1.7 | 4.3 | 0.14 | 0.00 | 0.11 | 97 | 1009.8 |
| 20260501193647 | 66 | 21 | 5.2 | 7.8 | 0.09 | 0.00 | 0.09 | 97 | 1009.1 |
| 20260501193146 | 66 | 59 | 6.1 | 7.8 | 0.21 | 0.00 | 0.08 | 96 | 1009.5 |
| 20260501192646 | 66 | 51 | 3.5 | 7.8 | 0.21 | 0.00 | 0.07 | 96 | 1009.5 |
| 20260501192147 | 67 | 61 | 6.1 | 10.4 | 0.02 | 0.00 | 0.04 | 95 | 1009.5 |
| 20260501191646 | 67 | 64 | 4.3 | 9.6 | 0.00 | 0.00 | 0.04 | 95 | 1009.1 |
| 20260501191146 | 67 | 64 | 6.1 | 9.6 | 0.00 | 0.00 | 0.04 | 95 | 1009.5 |
| 20260501190647 | 67 | 60 | 7.8 | 13.0 | 0.00 | 0.00 | 0.04 | 95 | 1009.1 |
| 20260501190147 | 67 | 66 | 7.8 | 10.4 | 0.00 | 0.00 | 0.04 | 96 | 1009.1 |
| 20260501185648 | 67 | 31 | 6.1 | 10.4 | 0.00 | 0.00 | 0.04 | 96 | 1009.1 |
| 20260501185147 | 67 | 54 | 3.5 | 12.2 | 0.00 | 0.00 | 0.04 | 96 | 1009.1 |
| 20260501184647 | 67 | 65 | 5.2 | 8.7 | 0.00 | 0.00 | 0.04 | 97 | 1009.1 |
| 20260501184147 | 67 | 51 | 6.1 | 11.3 | 0.00 | 0.00 | 0.04 | 97 | 1009.1 |
| 20260501183647 | 67 | 53 | 4.3 | 9.6 | 0.00 | 0.00 | 0.04 | 97 | 1009.1 |
| 20260501183147 | 67 | 12 | 7.0 | 11.3 | 0.02 | 0.00 | 0.04 | 97 | 1009.1 |
| 20260501182647 | 67 | 64 | 4.3 | 11.3 | 0.05 | 0.00 | 0.04 | 98 | 1009.1 |
| 20260501182147 | 67 | 57 | 4.3 | 7.8 | 0.14 | 0.00 | 0.03 | 98 | 1009.5 |
| 20260501181647 | 67 | 50 | 5.2 | 10.4 | 0.09 | 0.00 | 0.02 | 97 | 1009.8 |
| 20260501181147 | 67 | 77 | 6.1 | 14.8 | 0.02 | 0.00 | 0.01 | 97 | 1009.8 |
| 20260501180647 | 68 | 61 | 11.3 | 12.2 | 0.05 | 0.00 | 0.01 | 96 | 1010.2 |
| 20260501180147 | 68 | 43 | 3.5 | 10.4 | 0.02 | 0.00 | 0.00 | 95 | 1010.2 |
| 20260501175648 | 68 | 57 | 2.6 | 7.8 | 0.00 | 0.00 | 0.00 | 95 | 1010.2 |
| 20260501175147 | 68 | 357 | 7.0 | 12.2 | 0.00 | 0.00 | 0.00 | 94 | 1010.2 |
| 20260501174647 | 68 | 37 | 6.1 | 9.6 | 0.00 | 0.00 | 0.00 | 95 | 1010.5 |
| 20260501174147 | 68 | 25 | 7.8 | 13.0 | 0.00 | 0.00 | 0.00 | 94 | 1010.8 |
| 20260501173646 | 68 | 57 | 7.0 | 13.0 | 0.00 | 0.00 | 0.00 | 94 | 1010.2 |
| 20260501173148 | 68 | 35 | 7.8 | 12.2 | 0.00 | 0.00 | 0.00 | 93 | 1010.5 |
| 20260501172647 | 69 | 23 | 7.0 | 13.0 | 0.00 | 0.00 | 0.00 | 93 | 1010.5 |
| 20260501172146 | 69 | 42 | 6.1 | 13.0 | 0.00 | 0.00 | 0.00 | 93 | 1010.8 |
| 20260501171646 | 69 | 0 | 3.5 | 11.3 | 0.00 | 0.00 | 0.00 | 92 | 1011.2 |
| 20260501171147 | 70 | 23 | 6.1 | 9.6 | 0.00 | 0.00 | 0.00 | 91 | 1011.2 |
| 20260501170647 | 70 | 46 | 7.8 | 8.7 | 0.00 | 0.00 | 0.00 | 92 | 1011.2 |
| 20260501170148 | 70 | 37 | 7.0 | 12.2 | 0.00 | 0.00 | 0.00 | 91 | 1011.5 |
| 20260501165647 | 70 | 43 | 3.5 | 8.7 | 0.00 | 0.00 | 0.00 | 90 | 1011.5 |